User: anonymous   Login
Location: Unspecified
(0.0000°N, 0.0000°E)
Time: 00:56:12
(UTC+00:00)
Language:

OBJECT C - Orbit

View from above orbital plane
View from above orbital plane
View from above satellite
View from above satellite

Ground track
Ground track

The orbit data is extracted from the following two-line orbital elements,

1 42827U 17042C   17324.83042339  .00000721  00000-0  78902-4 0  9996
2 42827  97.6080 229.8318 0015423 164.5575 195.6118 14.90638567 19253
Epoch (UTC): 20 November 2017 19:55:48
Eccentricity: 0.0015423
inclination: 97.6080°
perigee height: 585 km
apogee height: 607 km
right ascension of ascending node: 229.8318°
argument of perigee: 164.5575°
revolutions per day: 14.90638567
mean anomaly at epoch: 195.6118°
orbit number at epoch: 1925

The dashed part of the orbit path shows where the satellite is in the earth's shadow,  

DLR